Location: Big Prairie
(40.6673°N, 82.0952°W)
Time: 02:01:02
(UTC+00:00)

Cosmos 841 Rocket - Pass Details

Date: 28 June 2022
Orbit: 745 x 772 km, 74.0° (Epoch: 15 August)

Event Time Altitude Azimuth Distance (km) Brightness Sun altitude
Exits shadow 08:42:24 17° 219° (SW) 1,819 4.8 -12.2°
Maximum altitude 08:46:12 54° 292° (WNW) 908 3.7 -11.7°
Drops below altitude 10° 08:51:16 10° 10° (N) 2,277 6.8 -11.0°
Sets 08:53:42 0° 15° (NNE) 3,209 7.8 -10.7°
